CW9792 Weather Reports


Display with metric or nautical units.
time (UTC)temp
F
wind
direction
speed
MPH
gust
MPH
rain 1hr
in
rain 24hr
in
rain mn
in
humidity
%
barometer
mb
20260504025549 53 175 0.0 0.0 0.00 0.00 0.00 50 1014.7
20260504025050 52 177 0.0 0.0 0.00 0.00 0.00 51 1014.7
20260504024552 52 194 0.0 0.0 0.00 0.00 0.00 52 1014.7
20260504024048 51 181 0.0 0.0 0.00 0.00 0.00 53 1014.7
20260504023548 51 179 0.0 0.0 0.00 0.00 0.00 53 1014.8
20260504023048 51 160 0.0 0.0 0.00 0.00 0.00 53 1014.8
20260504022549 51 161 0.0 0.0 0.00 0.00 0.00 53 1014.8
20260504022048 52 158 0.0 0.0 0.00 0.00 0.00 52 1014.8
20260504021548 52 158 0.0 0.0 0.00 0.00 0.00 52 1014.8
20260504021050 52 158 0.0 0.0 0.00 0.00 0.00 51 1014.8
20260504020546 52 158 0.0 0.0 0.00 0.00 0.00 51 1014.8
20260504020047 53 158 0.0 0.0 0.00 0.00 0.00 50 1014.8
20260504015547 54 158 0.0 0.0 0.00 0.00 0.00 49 1014.8
20260504015047 55 158 0.0 0.0 0.00 0.00 0.00 47 1014.8
20260504014547 55 158 0.0 0.0 0.00 0.00 0.00 46 1014.8
20260504014046 55 158 0.0 0.0 0.00 0.00 0.00 45 1014.9
20260504013546 56 158 0.0 0.0 0.00 0.00 0.00 45 1014.8
20260504013049 56 158 0.0 0.0 0.00 0.00 0.00 44 1014.7
20260504012647 56 158 0.0 0.0 0.00 0.00 0.00 44 1014.7
20260504012047 57 158 0.0 0.0 0.00 0.00 0.00 43 1014.7
20260504011546 57 158 0.0 0.0 0.00 0.00 0.00 41 1014.5
20260504011044 57 158 0.0 0.0 0.00 0.00 0.00 41 1014.3
20260504010544 57 158 0.0 0.0 0.00 0.00 0.00 40 1014.1
20260504010045 58 159 0.0 0.0 0.00 0.00 0.00 39 1014.1
20260504005544 59 159 0.0 0.0 0.00 0.00 0.00 38 1014.0
20260504005047 59 191 0.0 0.0 0.00 0.00 0.00 37 1014.0
20260504004544 59 194 0.0 0.0 0.00 0.00 0.00 37 1014.0
20260504004044 59 199 0.0 0.0 0.00 0.00 0.00 37 1014.0
20260504003543 60 190 0.0 0.0 0.00 0.00 0.00 36 1014.0
20260504003046 60 216 0.0 0.0 0.00 0.00 0.00 36 1014.0
20260504002543 60 219 0.0 0.0 0.00 0.00 0.00 35 1013.9
20260504002043 60 215 0.0 0.0 0.00 0.00 0.00 35 1013.9
20260504001544 61 217 0.0 0.0 0.00 0.00 0.00 34 1013.9
20260504001043 61 192 0.0 0.0 0.00 0.00 0.00 34 1013.9
20260504000541 61 232 0.0 0.0 0.00 0.00 0.00 33 1013.9
20260504000101 61 211 0.0 0.0 0.00 0.00 0.00 33 1014.0
20260503235540 62 223 0.0 0.0 0.00 0.00 0.00 32 1014.1
20260503235040 62 218 0.0 0.0 0.00 0.00 0.00 31 1014.1
20260503234540 62 204 0.0 0.0 0.00 0.00 0.00 32 1014.0
20260503234040 62 231 0.0 0.0 0.00 0.00 0.00 32 1014.1
20260503233540 62 225 0.0 0.0 0.00 0.00 0.00 31 1014.1
20260503233041 63 237 0.0 0.0 0.00 0.00 0.00 31 1014.1
20260503232538 63 221 0.0 0.0 0.00 0.00 0.00 30 1014.2
20260503232038 63 250 0.0 0.0 0.00 0.00 0.00 31 1014.1
20260503231538 63 229 0.0 0.0 0.00 0.00 0.00 30 1014.1
20260503231037 63 213 0.0 0.0 0.00 0.00 0.00 30 1014.3
20260503230536 63 238 0.0 0.0 0.00 0.00 0.00 29 1014.3
20260503230035 63 198 0.0 0.0 0.00 0.00 0.00 29 1014.4
20260503225535 63 223 0.0 0.0 0.00 0.00 0.00 30 1014.4
20260503225033 63 243 0.0 0.0 0.00 0.00 0.00 29 1014.7
20260503224533 63 217 0.0 0.0 0.00 0.00 0.00 29 1014.8
20260503224034 63 211 0.0 0.0 0.00 0.00 0.00 29 1014.9
20260503223535 63 216 0.0 0.0 0.00 0.00 0.00 30 1015.0
20260503223032 63 215 0.0 0.0 0.00 0.00 0.00 29 1015.0
20260503222530 63 233 0.0 0.0 0.00 0.00 0.00 29 1015.1
20260503222030 63 232 0.0 0.0 0.00 0.00 0.00 30 1015.3
20260503221530 63 227 0.0 0.0 0.00 0.00 0.00 29 1015.2
20260503221029 63 217 0.0 0.0 0.00 0.00 0.00 30 1015.3
20260503220531 63 214 0.0 0.0 0.00 0.00 0.00 30 1015.2
20260503220028 63 227 0.0 0.0 0.00 0.00 0.00 30 1015.4
20260503215530 63 167 0.0 0.0 0.00 0.00 0.00 30 1015.6
20260503215027 63 246 0.0 0.0 0.00 0.00 0.00 31 1015.6
20260503214528 63 230 0.0 0.0 0.00 0.00 0.00 29 1015.7
20260503214025 63 267 0.0 0.0 0.00 0.00 0.00 30 1016.0
20260503213525 63 225 0.0 0.0 0.00 0.00 0.00 29 1016.3
20260503213025 63 229 0.0 0.0 0.00 0.00 0.00 28 1016.1
20260503212525 63 250 0.0 0.0 0.00 0.00 0.00 27 1016.2
20260503212024 64 243 0.0 0.0 0.00 0.00 0.00 29 1016.2
20260503211524 63 243 0.0 0.0 0.00 0.00 0.00 28 1016.0
20260503211024 63 193 0.0 0.0 0.00 0.00 0.00 27 1016.0
20260503210521 63 248 0.0 0.0 0.00 0.00 0.00 27 1016.2
20260503210021 64 239 0.0 0.0 0.00 0.00 0.00 28 1016.3
20260503205522 63 229 0.0 0.0 0.00 0.00 0.00 28 1016.4
20260503205019 63 233 0.0 0.0 0.00 0.00 0.00 28 1016.5
20260503204521 63 244 0.0 0.0 0.00 0.00 0.00 27 1016.7
20260503204017 63 211 0.0 0.0 0.00 0.00 0.00 26 1016.7
20260503203521 63 248 0.0 0.0 0.00 0.00 0.00 29 1016.7
20260503203019 63 228 0.0 0.0 0.00 0.00 0.00 26 1016.8
20260503202516 63 225 0.0 0.0 0.00 0.00 0.00 27 1016.8
20260503202017 63 230 0.0 0.0 0.00 0.00 0.00 27 1016.9
20260503201513 62 225 0.0 0.0 0.00 0.00 0.00 25 1017.0
20260503201016 62 189 0.0 0.0 0.00 0.00 0.00 27 1017.3
20260503200511 62 201 0.0 0.0 0.00 0.00 0.00 26 1017.3
20260503200010 62 195 0.0 0.0 0.00 0.00 0.00 27 1017.4
20260503195510 62 196 0.0 0.0 0.00 0.00 0.00 24 1017.5
20260503195009 62 211 0.0 0.0 0.00 0.00 0.00 25 1017.7
20260503194510 62 233 0.0 0.0 0.00 0.00 0.00 24 1017.9
20260503194007 62 210 0.0 0.0 0.00 0.00 0.00 24 1018.0
20260503193509 63 242 0.0 0.0 0.00 0.00 0.00 25 1018.2
20260503193005 62 232 0.0 0.0 0.00 0.00 0.00 24 1018.3
20260503192504 62 234 0.0 1.0 0.00 0.00 0.00 26 1018.5
20260503192004 61 165 0.0 1.0 0.00 0.00 0.00 24 1018.4
20260503191503 61 242 0.0 0.0 0.00 0.00 0.00 23 1018.6
20260503191003 61 185 0.0 0.0 0.00 0.00 0.00 25 1018.6
20260503190501 61 188 0.0 0.0 0.00 0.00 0.00 25 1018.6
20260503190000 61 241 0.0 0.0 0.00 0.00 0.00 24 1018.7
20260503185600 61 216 0.0 0.0 0.00 0.00 0.00 26 1018.8
20260503185059 61 214 0.0 0.0 0.00 0.00 0.00 26 1018.9
20260503184619 61 197 0.0 0.0 0.00 0.00 0.00 25 1019.0
20260503184058 61 246 0.0 0.0 0.00 0.00 0.00 24 1019.0
20260503183556 61 225 0.0 0.0 0.00 0.00 0.00 27 1019.1
20260503183101 60 254 0.0 0.0 0.00 0.00 0.00 26 1019.3
20260503182555 60 253 0.0 0.0 0.00 0.00 0.00 26 1019.4
20260503182055 60 237 0.0 0.0 0.00 0.00 0.00 26 1019.3
20260503181558 59 248 0.0 0.0 0.00 0.00 0.00 26 1019.4
20260503181055 60 211 0.0 0.0 0.00 0.00 0.00 26 1019.5
20260503180553 60 240 0.0 0.0 0.00 0.00 0.00 26 1019.7
20260503180055 60 199 0.0 1.0 0.00 0.00 0.00 27 1019.7
20260503175552 59 138 0.0 0.0 0.00 0.00 0.00 28 1019.8
20260503175050 59 232 0.0 0.0 0.00 0.00 0.00 25 1019.9
20260503174551 59 250 0.0 0.0 0.00 0.00 0.00 25 1020.0
20260503174050 59 217 0.0 0.0 0.00 0.00 0.00 26 1020.1
20260503173553 59 233 0.0 1.0 0.00 0.00 0.00 25 1020.0
20260503173049 59 202 0.0 1.0 0.00 0.00 0.00 26 1020.1
20260503172548 59 254 0.0 7.0 0.00 0.00 0.00 25 1020.1
20260503172050 60 184 0.0 7.0 0.00 0.00 0.00 27 1020.2
20260503171608 59 198 0.0 0.0 0.00 0.00 0.00 28 1020.4
20260503171048 58 202 0.0 0.0 0.00 0.00 0.00 26 1020.6
20260503170547 59 213 0.0 0.0 0.00 0.00 0.00 25 1020.6
20260503150535 55 190 0.0 0.0 0.00 0.00 0.00 31 1021.8
20260503131012 47 192 0.0 0.0 0.00 0.00 0.00 54 1021.7
20260503130510 47 173 0.0 0.0 0.00 0.00 0.00 54 1021.7
20260503110552 34 181 0.0 0.0 0.00 0.00 0.00 69 1020.9
20260503081541 35 342 0.0 0.0 0.00 0.00 0.00 66 1020.6
20260503081039 35 342 0.0 0.0 0.00 0.00 0.00 66 1020.5
20260503080541 35 342 0.0 0.0 0.00 0.00 0.00 66 1020.5
20260503072536 35 342 0.0 0.0 0.00 0.00 0.00 65 1020.2
20260503072037 35 342 0.0 0.0 0.00 0.00 0.00 65 1020.3
20260503071552 35 342 0.0 0.0 0.00 0.00 0.00 64 1020.3
20260503071033 36 342 0.0 0.0 0.00 0.00 0.00 64 1020.2
20260503070532 36 342 0.0 0.0 0.00 0.00 0.00 64 1020.1
20260503055023 39 342 0.0 0.0 0.00 0.00 0.00 63 1020.5
20260503054528 39 342 0.0 0.0 0.00 0.00 0.00 63 1020.5
20260503054023 38 342 0.0 0.0 0.00 0.00 0.00 63 1020.5
20260503053522 39 342 0.0 0.0 0.00 0.00 0.00 63 1020.3
20260503053033 39 342 0.0 1.0 0.00 0.00 0.00 63 1020.3
20260503052521 39 342 0.0 1.0 0.00 0.00 0.00 63 1020.4
20260503052020 39 342 0.0 0.0 0.00 0.00 0.00 63 1020.4
20260503051522 40 342 0.0 0.0 0.00 0.00 0.00 63 1020.4
20260503051018 40 342 0.0 0.0 0.00 0.00 0.00 63 1020.4
20260503050520 40 342 0.0 0.0 0.00 0.00 0.00 63 1020.4
20260503050018 40 342 0.0 0.0 0.00 0.00 0.00 63 1020.4
20260503045517 40 342 0.0 0.0 0.00 0.00 0.00 63 1020.4
20260503045017 40 342 0.0 0.0 0.00 0.00 0.00 62 1020.4
20260503044533 40 342 0.0 0.0 0.00 0.00 0.00 62 1020.4
20260503044014 41 342 0.0 0.0 0.00 0.00 0.00 62 1020.3
20260503043513 41 342 0.0 0.0 0.00 0.00 0.00 62 1020.3
20260503043027 41 342 0.0 0.0 0.00 0.00 0.00 62 1020.2
20260503042513 41 342 0.0 0.0 0.00 0.00 0.00 62 1020.2
20260503042012 41 342 0.0 0.0 0.00 0.00 0.00 62 1020.2
20260503041511 42 342 0.0 0.0 0.00 0.00 0.00 62 1020.1
20260503041011 42 342 0.0 0.0 0.00 0.00 0.00 62 1020.1
20260503040509 42 342 0.0 0.0 0.00 0.00 0.00 62 1020.1
20260503040008 42 342 0.0 0.0 0.00 0.00 0.00 62 1020.1
20260503035508 42 342 0.0 0.0 0.00 0.00 0.00 61 1020.1
20260503035009 42 342 0.0 0.0 0.00 0.00 0.00 61 1020.0
20260503034507 43 342 0.0 0.0 0.00 0.00 0.00 60 1020.0
20260503034006 43 342 0.0 0.0 0.00 0.00 0.00 60 1020.0
20260503033510 43 342 0.0 0.0 0.00 0.00 0.00 60 1019.9
20260503033007 43 342 0.0 0.0 0.00 0.00 0.00 60 1020.0
20260503032506 44 342 0.0 0.0 0.00 0.00 0.00 60 1019.9
20260503032008 44 342 0.0 0.0 0.00 0.00 0.00 60 1019.9
20260503031505 44 342 0.0 0.0 0.00 0.00 0.00 59 1019.8
20260503031005 44 342 0.0 0.0 0.00 0.00 0.00 59 1019.8
20260503030504 44 342 0.0 0.0 0.00 0.00 0.00 59 1019.8
20260503030004 44 342 0.0 0.0 0.00 0.00 0.00 59 1019.7